Location: Key Biscayne
(25.6930°N, 80.1630°W)
Time: 07:29:00
(UTC-05:00)

N. Korean satellite - Pass Details

Date: 15 November 2017
Orbit: 460 x 515 km, 97.2° (Epoch: 18 November)

Event Time Altitude Azimuth Distance (km) Brightness Sun altitude
Rises 18:18:44 0° 160° (SSE) 2,468 10.1 -10.9°
Reaches altitude 10° 18:20:47 10° 155° (SSE) 1,598 9.1 -11.3°
Maximum altitude 18:24:08 55° 77° (ENE) 562 6.5 -12.1°
Drops below altitude 10° 18:27:32 10° 359° (N) 1,619 9.1 -12.8°
Sets 18:29:37 0° 355° (N) 2,505 10.1 -13.3°
